[[{"header":{"parameterUnit":"m.s-1","parameterCategory":1,"la1":30.2991,"la2":30.254,"lo1":-89.0895,"lo2":-89.0444,"dy":0.0017,"dx":0.0017,"nx":28,"ny":28,"refTime":"2024-03-29T21:00:00:Z","depth":0,"parameterNumber":2,"parameterNumberName":"U-component_of_WINDS"},"data":[0,0,0,0,0,0,0,0,0,0,0,0,0,0,0,0,0,0,0,0,0,0,0,0,0,0,0,0,0,0,0,0,0,0,0,0,0,0,0,0,0,0,0,0,0,0,0,0,0,0,0,0,0,0,0,0,0,0,-3.5769,-3.5769,0,-3.5742,-3.5742,-3.5742,-3.562,-3.5617,-3.5614,-3.5612,-3.5586,-3.5588,-3.559,0,0,0,0,0,0,0,0,0,0,0,0,0,-3.5716,-3.5718,-3.5769,-3.5768,-3.5768,-3.5742,-3.5742,-3.5742,-3.5621,-3.5617,-3.5614,-3.561,-3.5585,-3.5588,-3.559,0,0,0,0,0,0,0,0,0,0,0,0,0,-3.5719,-3.5718,-3.5769,-3.5705,-3.5699,-3.5742,-3.5742,-3.5741,-3.5621,-3.5617,-3.5613,-3.5609,-3.5585,-3.5587,-3.559,-3.5694,0,0,-3.5599,-3.5601,0,0,0,0,0,0,0,0,-3.5719,-3.5721,-3.5714,-3.5709,-3.5702,-3.568,-3.5714,-3.5726,-3.5622,-3.5651,-3.5612,-3.5607,-3.5621,-3.5621,-3.5625,-3.5693,-3.5692,-3.56,-3.5602,-3.5603,-3.5604,0,0,0,0,0,0,0,-3.5719,-3.5722,-3.5758,-3.5714,-3.5707,-3.5678,-3.5673,-3.5716,-3.566,-3.5648,-3.5639,-3.5637,-3.5617,-3.5623,-3.5624,-3.5692,-3.56,-3.5602,-3.5604,-3.5605,-3.5845,-3.585,0,0,0,0,0,0,-3.5728,-3.5723,-3.5759,-3.5757,-3.57,-3.5682,-3.5677,-3.5692,-3.5659,-3.565,-3.5641,-3.5632,-3.562,-3.562,-3.5622,-3.5743,-3.5603,-3.5606,-3.5607,-3.5841,-3.5846,-3.5851,0,0,0,0,0,0,-3.5727,-3.5732,-3.576,-3.5738,-3.5739,-3.5687,-3.5705,-3.5693,-3.5699,-3.5654,-3.5644,-3.5657,-3.5616,-3.5618,-3.5678,-3.574,-3.5607,-3.561,-3.5835,-3.5843,-3.5849,-3.5985,0,0,0,0,0,0,-3.5726,-3.5733,-3.5771,-3.5739,-3.5741,-3.5816,-3.5708,-3.5696,-3.5704,-3.5692,-3.5666,-3.5658,-3.5613,-3.5674,-3.5681,-3.5742,-3.5612,-3.583,-3.5839,-3.5847,-3.5975,-3.5996,-3.6014,0,0,0,0,0,-3.5725,-3.5811,-3.5774,-3.5779,-3.5788,-3.582,-3.582,-3.5766,-3.571,-3.5748,-3.572,-3.5659,-3.5732,-3.5681,-3.5687,-3.5751,-3.5825,-3.5836,-3.5846,-3.5966,-3.5992,-3.6013,0,0,0,0,0,0,-3.5852,-3.5805,-3.5764,-3.5842,-3.5836,-3.5799,-3.5846,-3.5795,-3.5805,-3.5793,-3.5726,-3.5721,-3.5791,-3.5776,-3.572,-3.585,-3.5769,-3.5781,-3.5858,-3.5882,-3.5901,-3.5903,-3.5614,0,0,0,0,0,-3.5889,-3.5919,-3.5876,-3.5949,-3.5948,-3.5899,-3.591,-3.5869,-3.586,-3.5857,-3.5832,-3.5826,-3.5848,-3.5864,-3.5881,-3.5972,-3.5965,-3.6019,-3.6038,-3.6054,-3.6066,-3.6114,-3.6138,-3.5885,-3.5885,-3.5885,0,0,-3.5966,-3.5944,-3.5967,-3.5974,-3.5965,-3.5998,-3.5897,-3.5935,-3.5959,-3.5863,-3.5918,-3.59,-3.5889,-3.5965,-3.5997,-3.5955,-3.6134,-3.6067,-3.6081,-3.6084,-3.6127,-3.6151,-3.6173,-3.5892,-3.5891,-3.589,0,0,-3.6123,-3.6109,-3.6169,-3.6162,-3.6148,-3.6114,-3.6129,-3.61,-3.6085,-3.6139,-3.6067,-3.6095,-3.6133,-3.6129,-3.6131,-3.6288,-3.6233,-3.6296,-3.6398,-3.6446,-3.6466,-3.6483,-3.654,-3.6562,-3.6307,-3.6307,-3.6308,0,-3.6221,-3.6267,-3.6207,-3.625,-3.6256,-3.617,-3.6231,-3.6226,-3.622,-3.6226,-3.6179,-3.6226,-3.6212,-3.6286,-3.6325,-3.6329,-3.6345,-3.6299,-3.6468,-3.6484,-3.65,-3.6554,-3.6575,-3.6315,-3.6314,-3.6313,-3.6313,0,-3.6388,-3.6422,-3.6472,-3.6467,-3.6479,-3.6531,-3.6479,-3.6498,-3.6456,-3.6428,-3.6485,-3.6465,-3.6478,-3.6492,-3.6451,-3.6562,-3.6536,-3.6479,-3.6396,-3.6533,-3.6582,-3.6602,-3.6326,-3.6324,-3.6321,-3.6319,0,0,-3.6625,-3.6587,-3.6607,-3.6604,-3.6583,-3.6608,-3.6657,-3.6669,-3.6687,-3.6685,-3.6725,-3.676,-3.6708,-3.6711,-3.6669,-3.6711,-3.6838,-3.6649,-3.6648,-3.6686,-3.696,-3.7004,-3.7029,-3.6801,-3.6805,-3.6808,-3.6962,0,-3.6776,-3.6857,-3.6805,-3.6894,-3.6925,-3.6844,-3.6886,-3.6878,-3.6853,-3.6876,-3.6848,-3.6875,-3.6803,-3.6804,-3.6842,-3.6815,-3.6893,-3.6803,-3.6839,-3.6841,-3.6846,-3.7054,-3.7101,-3.7247,-3.698,-3.6984,-3.6986,0,-3.6964,-3.6971,-3.7064,-3.7037,-3.7048,-3.7087,-3.7095,-3.7117,-3.7107,-3.7086,-3.7091,-3.7038,-3.7085,-3.7002,-3.7067,-3.7007,-3.7018,-3.7007,-3.7012,-3.7014,-3.6923,-3.7064,-3.7292,-3.7315,-3.7016,-3.7013,-3.7011,0,-3.7129,-3.7161,-3.7221,-3.7221,-3.7192,-3.7222,-3.7211,-3.7197,-3.7208,-3.7214,-3.7221,-3.7233,-3.724,-3.7251,-3.7204,-3.7148,-3.7276,-3.7188,-3.726,-3.7262,-3.7292,-3.7291,-3.7527,-3.7298,-3.7297,-3.7297,-3.7296,0,-3.7304,-3.7365,-3.7295,-3.7333,-3.7398,-3.7337,-3.7404,-3.7384,-3.7373,-3.7405,-3.7335,-3.7367,-3.7302,-3.7328,-3.7292,-3.7351,-3.7355,-3.734,-3.733,-3.7347,-3.7349,-3.7355,-3.7344,-3.7303,-3.7301,-3.73,-3.7299,0,-3.7501,-3.7456,-3.7517,-3.7484,-3.7477,-3.7527,-3.75,-3.7533,-3.7503,-3.7546,-3.7552,-3.7506,-3.7533,-3.7486,-3.7507,-3.7483,-3.7567,-3.754,-3.757,-3.7563,-3.7638,-3.7633,-3.7887,-3.7918,-3.7668,-3.7671,-3.7673,0,-3.7616,-3.766,-3.7633,-3.765,-3.7643,-3.7671,-3.7682,-3.7624,-3.7638,-3.7631,-3.7666,-3.7687,-3.77,-3.7747,-3.7716,-3.7732,-3.7706,-3.7794,-3.7708,-3.7725,-3.7709,-3.7708,-3.7713,-3.7813,-3.7816,-3.7818,-3.782,0,-3.7826,-3.7802,-3.782,-3.7832,-3.7847,-3.7853,-3.7854,-3.7872,-3.7811,-3.7831,-3.7857,-3.7868,-3.789,-3.7912,-3.7921,-3.791,-3.7856,-3.7847,-3.7865,-3.7884,-3.79,-3.7894,-3.762,-3.7842,-3.784,-3.7838,-3.7837,-3.7836,-3.7986,-3.8022,-3.8009,-3.8032,-3.8027,-3.803,-3.806,-3.8034,-3.8055,-3.8068,-3.8033,-3.8069,-3.8058,-3.8064,-3.806,-3.8087,-3.8048,-3.8074,-3.808,-3.8088,-3.8101,-3.7895,-3.8088,-3.8088,-3.8087,-3.8086,-3.8086,0,-3.8194,-3.8181,-3.8203,-3.8207,-3.8226,-3.8172,-3.8171,-3.819,-3.8222,-3.8217,-3.8232,-3.8263,-3.8285,-3.8256,-3.8272,-3.83,-3.8276,-3.8306,-3.8304,-3.8303,-3.8134,-3.8117,-3.8326,-3.8326,-3.8326,-3.8326,-3.8326,-3.8326,-3.8304,-3.8363,-3.8338,-3.8394,-3.8381,-3.8415,-3.8419,-3.8422,-3.8418,-3.8456,-3.8473,-3.8454,-3.8439,-3.8454,-3.8472,-3.8463,-3.8473,-3.8513,-3.8496,-3.8338,-3.8315,-3.8293,-3.8277,-3.8516,-3.8516,-3.8663,-3.8664,-3.8665]},{"header":{"parameterUnit":"m.s-1","parameterCategory":1,"la1":30.2991,"la2":30.254,"lo1":-89.0895,"lo2":-89.0444,"dy":0.0017,"dx":0.0017,"nx":28,"ny":28,"refTime":"2024-03-29T21:00:00:Z","depth":0,"parameterNumber":3,"parameterNumberName":"V-component_of_WINDS"},"data":[0,0,0,0,0,0,0,0,0,0,0,0,0,0,0,0,0,0,0,0,0,0,0,0,0,0,0,0,0,0,0,0,0,0,0,0,0,0,0,0,0,0,0,0,0,0,0,0,0,0,0,0,0,0,0,0,0,0,-0.2384,-0.2385,0,-0.2458,-0.2459,-0.2459,-0.2476,-0.2475,-0.2474,-0.2474,-0.255,-0.2553,-0.2555,0,0,0,0,0,0,0,0,0,0,0,0,0,-0.2257,-0.226,-0.2384,-0.2385,-0.2386,-0.2458,-0.2459,-0.246,-0.2476,-0.2475,-0.2474,-0.2474,-0.255,-0.2552,-0.2556,0,0,0,0,0,0,0,0,0,0,0,0,0,-0.232,-0.226,-0.2384,-0.2403,-0.2405,-0.2457,-0.2459,-0.246,-0.2476,-0.2475,-0.2474,-0.2473,-0.2549,-0.2552,-0.2556,-0.2595,0,0,-0.2568,-0.2569,0,0,0,0,0,0,0,0,-0.2316,-0.2324,-0.2399,-0.2401,-0.2404,-0.2457,-0.2442,-0.2505,-0.2476,-0.2449,-0.2474,-0.2473,-0.252,-0.2526,-0.2542,-0.2599,-0.2602,-0.2568,-0.257,-0.2572,-0.2573,0,0,0,0,0,0,0,-0.2312,-0.2321,-0.2413,-0.24,-0.2403,-0.2407,-0.2415,-0.2454,-0.2488,-0.2451,-0.2453,-0.2461,-0.2521,-0.2538,-0.2544,-0.2603,-0.2568,-0.2571,-0.2574,-0.2575,-0.2696,-0.2697,0,0,0,0,0,0,-0.2304,-0.2318,-0.2411,-0.2416,-0.2357,-0.241,-0.2419,-0.2441,-0.2488,-0.2494,-0.2462,-0.2461,-0.2532,-0.2539,-0.2546,-0.2595,-0.2572,-0.2575,-0.2578,-0.2695,-0.2696,-0.2697,0,0,0,0,0,0,-0.2301,-0.2312,-0.2408,-0.2367,-0.2379,-0.2413,-0.2437,-0.2443,-0.2459,-0.2496,-0.2502,-0.2472,-0.2531,-0.2541,-0.2583,-0.2598,-0.2577,-0.2581,-0.2694,-0.2695,-0.2696,-0.2693,0,0,0,0,0,0,-0.2298,-0.2311,-0.2327,-0.2367,-0.2382,-0.2443,-0.2438,-0.2445,-0.2466,-0.2466,-0.2507,-0.2513,-0.2532,-0.2577,-0.2587,-0.2603,-0.2583,-0.2693,-0.2694,-0.2696,-0.2692,-0.2694,-0.2696,0,0,0,0,0,-0.2293,-0.2323,-0.2328,-0.2339,-0.2402,-0.2444,-0.2452,-0.2472,-0.2467,-0.2483,-0.2506,-0.2512,-0.2594,-0.2581,-0.2592,-0.261,-0.2692,-0.2694,-0.2696,-0.2691,-0.2694,-0.2696,0,0,0,0,0,0,-0.2285,-0.2329,-0.2334,-0.2378,-0.2407,-0.2447,-0.2467,-0.2475,-0.2506,-0.2506,-0.2529,-0.2538,-0.2579,-0.2598,-0.2583,-0.265,-0.2643,-0.2647,-0.2635,-0.2638,-0.264,-0.2635,-0.2587,0,0,0,0,0,-0.2288,-0.2318,-0.2356,-0.2391,-0.2405,-0.2434,-0.2453,-0.2466,-0.2497,-0.2509,-0.2536,-0.2566,-0.2598,-0.2619,-0.2651,-0.2694,-0.2703,-0.2712,-0.2714,-0.2715,-0.2719,-0.2742,-0.2746,-0.2704,-0.2704,-0.2704,0,0,-0.2295,-0.2323,-0.2341,-0.239,-0.2414,-0.2445,-0.2444,-0.2477,-0.2501,-0.2515,-0.2555,-0.2575,-0.2611,-0.2653,-0.2673,-0.2671,-0.2732,-0.2718,-0.2719,-0.2722,-0.2745,-0.2749,-0.2752,-0.2705,-0.2705,-0.2705,0,0,-0.2323,-0.2348,-0.2379,-0.2403,-0.2439,-0.2458,-0.2465,-0.2503,-0.2517,-0.2558,-0.2569,-0.2597,-0.2653,-0.2677,-0.2697,-0.2733,-0.274,-0.2742,-0.2753,-0.2776,-0.2779,-0.2782,-0.2794,-0.2799,-0.2746,-0.2746,-0.2746,0,-0.2328,-0.2375,-0.2395,-0.2427,-0.2448,-0.2461,-0.2493,-0.2516,-0.256,-0.2574,-0.2571,-0.264,-0.2665,-0.2713,-0.2721,-0.2737,-0.2746,-0.2738,-0.2777,-0.278,-0.2783,-0.2795,-0.28,-0.2746,-0.2746,-0.2746,-0.2746,0,-0.2378,-0.2411,-0.2432,-0.2474,-0.2497,-0.2529,-0.2554,-0.2575,-0.2585,-0.2604,-0.2645,-0.2675,-0.2713,-0.2725,-0.2736,-0.2774,-0.2771,-0.2772,-0.2766,-0.2787,-0.2799,-0.2804,-0.2746,-0.2746,-0.2746,-0.2746,0,0,-0.2404,-0.2456,-0.2463,-0.2482,-0.2522,-0.2547,-0.258,-0.2616,-0.2633,-0.2663,-0.2691,-0.2737,-0.2738,-0.276,-0.2773,-0.2793,-0.2819,-0.2791,-0.2792,-0.2795,-0.2862,-0.2861,-0.2866,-0.2823,-0.2824,-0.2825,-0.2859,0,-0.2438,-0.2495,-0.2514,-0.2562,-0.2592,-0.2604,-0.2632,-0.2659,-0.2677,-0.2705,-0.2725,-0.2757,-0.2756,-0.2769,-0.2789,-0.2811,-0.2833,-0.2809,-0.2849,-0.285,-0.284,-0.2872,-0.2872,-0.2902,-0.2864,-0.2864,-0.2865,0,-0.2484,-0.2514,-0.2565,-0.26,-0.2613,-0.2638,-0.2672,-0.2699,-0.273,-0.2741,-0.2765,-0.2777,-0.2811,-0.2802,-0.2849,-0.2832,-0.285,-0.2863,-0.2865,-0.2869,-0.2859,-0.2878,-0.2913,-0.2917,-0.2873,-0.2872,-0.2871,0,-0.2497,-0.2551,-0.2588,-0.2603,-0.2645,-0.2662,-0.268,-0.2711,-0.2731,-0.2761,-0.2774,-0.2808,-0.2826,-0.2852,-0.2872,-0.2864,-0.2916,-0.291,-0.2927,-0.2926,-0.2938,-0.2937,-0.2976,-0.2949,-0.2949,-0.2949,-0.2949,0,-0.2533,-0.2563,-0.2594,-0.2617,-0.2651,-0.2671,-0.2705,-0.2724,-0.275,-0.2777,-0.279,-0.2814,-0.2839,-0.2867,-0.2883,-0.2919,-0.2927,-0.2938,-0.2942,-0.2936,-0.2935,-0.2948,-0.2947,-0.295,-0.295,-0.295,-0.2949,0,-0.2553,-0.2575,-0.2616,-0.2652,-0.2662,-0.2685,-0.2716,-0.2739,-0.2757,-0.279,-0.2799,-0.2827,-0.2861,-0.2883,-0.2926,-0.2937,-0.2976,-0.2979,-0.2965,-0.2967,-0.2982,-0.2981,-0.3031,-0.3039,-0.3007,-0.3007,-0.3007,0,-0.2574,-0.2598,-0.2636,-0.2654,-0.2672,-0.2702,-0.2722,-0.2743,-0.2764,-0.28,-0.2818,-0.2852,-0.288,-0.2933,-0.2958,-0.299,-0.2995,-0.301,-0.3,-0.2993,-0.2994,-0.2993,-0.2995,-0.3012,-0.3012,-0.3012,-0.3012,0,-0.2609,-0.2618,-0.2647,-0.2679,-0.2703,-0.273,-0.2756,-0.2771,-0.2796,-0.2819,-0.2852,-0.2874,-0.2917,-0.2951,-0.2986,-0.3004,-0.3013,-0.3015,-0.3021,-0.3016,-0.3006,-0.3011,-0.2969,-0.3014,-0.3014,-0.3014,-0.3014,-0.3014,-0.263,-0.2651,-0.2681,-0.2712,-0.2734,-0.2758,-0.2781,-0.2801,-0.283,-0.2866,-0.2877,-0.2912,-0.2941,-0.2989,-0.3008,-0.3035,-0.3034,-0.3042,-0.3044,-0.3046,-0.3046,-0.3002,-0.3042,-0.3042,-0.3042,-0.3042,-0.3042,0,-0.2665,-0.2684,-0.2713,-0.2749,-0.2773,-0.2778,-0.2808,-0.2828,-0.2858,-0.2885,-0.2912,-0.2951,-0.2983,-0.3009,-0.3043,-0.306,-0.3064,-0.3068,-0.3067,-0.3071,-0.3045,-0.3037,-0.3063,-0.3063,-0.3063,-0.3063,-0.3063,-0.3063,-0.2686,-0.2721,-0.2734,-0.278,-0.28,-0.2834,-0.285,-0.2872,-0.2893,-0.2935,-0.2962,-0.2979,-0.3005,-0.304,-0.307,-0.3077,-0.3089,-0.3091,-0.3099,-0.3075,-0.3073,-0.307,-0.3062,-0.3094,-0.3094,-0.3122,-0.3122,-0.3122]}]]